Stations météo

réclame
Mon MeteoGroup
Arjeplog, Suède (2124): Température de l'air & dewpoint: 18.10.2018 07:00:00 - 24.10.2018 07:00:00 (CEST)Arjeplog, Suède (2124): Vitesse du vent & gusts: 18.10.2018 07:00:00 - 24.10.2018 07:00:00 (CEST)Arjeplog, Suède (2124): Direction du vent: 18.10.2018 07:00:00 - 24.10.2018 07:00:00 (CEST)Arjeplog, Suède (2124): reduced air pressure: 18.10.2018 07:00:00 - 24.10.2018 07:00:00 (CEST)Arjeplog, Suède (2124): visibility: 18.10.2018 07:00:00 - 24.10.2018 07:00:00 (CEST)Arjeplog, Suède (2124): Quantités de précipitations: 18.10.2018 07:00:00 - 24.10.2018 07:00:00 (CEST)
Date & Time tt [°C] td [°C] ff [km/h] ff [knt] fx [km/h] fx [knt] dd ppp [hPa] vv [km] rr [mm]
24.10.2018 07:00:00 -6,8 -7,6 3 1 5 3 SW 996,8 50 0,0
24.10.2018 06:00:00 -6,6 -7,4 2 1 5 3 SW 996,5 50 0,0
24.10.2018 05:00:00 -4,3 -5,7 4 2 10 5 SW 996,2 50 0,0
24.10.2018 04:00:00 -3,8 -5,2 5 3 11 6 WSW 995,9 50 0,0
24.10.2018 03:00:00 -4,6 -5,4 6 4 9 5 WSW 995,6 50 0,0
24.10.2018 02:00:00 -6,0 -7,2 0 0 7 4 N 995,7 50 0,0
24.10.2018 01:00:00 -5,1 -6,3 4 2 9 5 WSW 995,3 50 0,0
24.10.2018 00:00:00 -3,9 -5,6 5 3 11 6 WNW 994,8 50 0,0
23.10.2018 23:00:00 -4,5 -5,6 5 3 12 6 W 994,4 50 0,0
23.10.2018 22:00:00 -3,0 -4,4 6 3 11 6 W 993,6 50 0,0
23.10.2018 21:00:00 -3,6 -4,4 0 0 6 3 N 993,1 50 0,0
23.10.2018 20:00:00 -2,1 -2,9 0 0 12 7 N 992,2 50 0,0
23.10.2018 19:00:00 -0,7 -1,4 7 4 13 7 W 991,3 50 0,0
23.10.2018 18:00:00 -1,1 -1,7 4 2 11 6 W 990,9 47 0,2
23.10.2018 17:00:00 -0,9 -1,5 5 3 12 6 W 990,6 5 0,2
23.10.2018 16:00:00 -0,4 -1,1 6 3 13 7 WSW 990,2 1,9 0,2
23.10.2018 15:00:00 0,3 -2,2 8 4 15 8 SSW 989,8 7 0,1
23.10.2018 14:00:00 0,2 -2,5 6 4 19 10 S 989,7 45 0,0
23.10.2018 13:00:00 -0,2 -2,7 9 5 19 11 S 989,7 50 0,0
23.10.2018 12:00:00 -0,4 -3,1 10 6 20 11 S 989,8 46 0,0
23.10.2018 11:00:00 -0,4 -2,8 6 4 13 7 SSE 989,9 46 0,0
23.10.2018 10:00:00 -1,4 -3,3 7 4 11 6 SSW 990,3 50 0,0
23.10.2018 09:00:00 -4,9 -5,6 3 1 7 4 SSE 991,2 25 0,0
23.10.2018 08:00:00 -5,0 -5,8 0 0 10 5 N 991,2 13 0,0
23.10.2018 07:00:00 -3,2 -4,6 2 1 13 7 SSW 991,2 43 0,0
23.10.2018 06:00:00 -1,8 -3,8 8 5 12 7 SW 991,8 50 0,0
23.10.2018 05:00:00 -1,9 -3,9 4 2 13 7 WSW 992,3 50 0,0
23.10.2018 04:00:00 -1,4 -3,8 6 3 13 7 SW 992,7 50 0,0
23.10.2018 03:00:00 -0,8 -3,5 8 5 13 7 SW 992,9 50 0,0
23.10.2018 02:00:00 -0,9 -3,4 7 4 16 8 SSW 993,3 50 0,0
23.10.2018 01:00:00 -0,7 -3,6 9 5 18 10 SW 993,8 50 0,0
23.10.2018 00:00:00 0,1 -3,5 11 6 22 12 SW 994,3 50 0,0
22.10.2018 23:00:00 0,1 -3,3 8 5 22 12 SSW 995,0 50 0,0
22.10.2018 22:00:00 0,4 -3,3 13 7 22 12 WSW 995,1 50 0,0
22.10.2018 21:00:00 0,4 -3,9 10 6 28 15 W 995,7 50 0,0
22.10.2018 20:00:00 1,3 -4,2 12 7 30 16 W 995,7 50 0,0
22.10.2018 19:00:00 1,6 -3,7 15 8 34 19 W 995,8 50 0,0
22.10.2018 18:00:00 1,5 -2,8 9 5 27 15 WSW 996,1 50 0,0
22.10.2018 17:00:00 1,9 -2,6 12 6 22 12 WSW 995,6 50 0,0
22.10.2018 16:00:00 2,7 -2,6 11 6 27 15 WSW 995,5 50 0,0
22.10.2018 15:00:00 2,9 -3,0 14 7 36 20 W 994,9 50 0,0
22.10.2018 14:00:00 4,4 -3,6 13 7 32 17 WSW 994,0 50 0,0
22.10.2018 13:00:00 4,1 -3,0 12 6 28 15 WSW 994,5 45 0,0
22.10.2018 12:00:00 2,8 -2,5 14 7 31 17 WSW 994,8 50 0,0
22.10.2018 11:00:00 2,2 -1,2 19 10 35 19 SW 994,3 50 0,0
22.10.2018 10:00:00 1,5 -1,4 13 7 36 20 SSW 994,6 50 0,0
22.10.2018 09:00:00 1,0 -2,4 16 9 26 14 SSW 995,0 38 0,0
22.10.2018 08:00:00 0,7 -2,7 10 5 27 15 S 995,9 26 0,0
22.10.2018 07:00:00 0,7 -2,4 14 7 21 12 SSW 996,6 30 0,0
22.10.2018 06:00:00 0,9 -2,5 8 5 23 12 SSW 996,9 50 0,0
22.10.2018 05:00:00 0,9 -3,0 6 4 19 11 SSW 997,3 38 0,0
22.10.2018 04:00:00 0,8 -2,8 5 3 18 10 WSW 997,6 48 0,0
22.10.2018 03:00:00 1,7 -3,0 11 6 21 12 W 997,9 46 0,0
22.10.2018 02:00:00 2,2 -1,8 9 5 22 12 WSW 997,8 42 0,0
22.10.2018 01:00:00 2,4 -1,6 9 5 18 10 WSW 997,7 46 0,0
22.10.2018 00:00:00 -0,2 -1,6 2 1 8 4 S 998,5 40 0,0
21.10.2018 23:00:00 1,8 -0,9 4 2 22 12 WNW 998,0 39 0,0
21.10.2018 22:00:00 3,6 -0,1 10 5 21 12 WSW 998,6 50 0,0
21.10.2018 21:00:00 4,0 0,9 8 4 21 11 WSW 999,5 39 0,0
21.10.2018 20:00:00 4,4 0,7 10 6 28 15 WSW 999,9 50 0,0
21.10.2018 19:00:00 4,7 1,2 14 8 28 15 SW 999,7 50 0,0
21.10.2018 18:00:00 5,0 1,1 11 6 23 13 WSW 1000,0 50 0,0
21.10.2018 17:00:00 5,6 1,5 16 9 26 14 SW 1000,3 50 0,0
21.10.2018 16:00:00 5,9 0,8 15 8 35 19 W 1000,6 38 0,0
21.10.2018 15:00:00 7,3 0,3 17 9 33 18 WSW 1000,3 34 0,0
21.10.2018 14:00:00 7,4 0,1 20 11 40 22 SW 1000,6 26 0,0
21.10.2018 13:00:00 6,9 1,0 13 7 39 21 WSW 1001,1 25 0,0
21.10.2018 12:00:00 6,5 1,8 13 7 25 13 SW 1001,4 37 0,0
21.10.2018 11:00:00 5,4 3,2 13 7 31 17 SSW 1001,9 50 0,0
21.10.2018 10:00:00 4,5 3,2 16 9 31 17 S 1002,6 50 0,0
21.10.2018 09:00:00 4,5 2,8 16 9 30 16 S 1002,8 47 0,0
21.10.2018 08:00:00 3,9 2,6 12 6 32 17 S 1003,0 50 0,0
21.10.2018 07:00:00 3,6 2,4 16 9 32 17 S 1003,5 50 0,0
21.10.2018 06:00:00 3,4 1,9 15 8 35 19 S 1004,2 50 0,0
21.10.2018 05:00:00 3,5 1,9 16 9 37 20 S 1005,1 50 0,0
21.10.2018 04:00:00 3,3 1,8 19 11 36 19 S 1006,4 50 0,1
21.10.2018 03:00:00 3,0 1,8 11 6 29 16 S 1008,3 43 0,1
21.10.2018 02:00:00 3,1 1,3 14 8 32 17 S 1009,6 38 0,0
21.10.2018 01:00:00 3,0 1,0 15 8 26 14 S 1011,4 50 0,0
21.10.2018 00:00:00 3,0 1,0 13 7 22 12 SSE 1012,3 50 0,0
20.10.2018 23:00:00 2,1 0,8 6 3 14 8 SE 1013,5 49 0,0
20.10.2018 22:00:00 3,1 0,8 8 4 16 9 SSW 1014,1 50 0,0
20.10.2018 21:00:00 2,6 0,8 6 4 13 7 SSE 1015,5 50 0,0
20.10.2018 20:00:00 0,0 -0,4 4 2 11 6 SSW 1016,6 50 0,0
20.10.2018 19:00:00 1,2 0,5 6 3 10 6 S 1016,5 50 0,0
20.10.2018 18:00:00 3,0 1,4 4 2 10 5 SSE 1016,9 50 0,0
20.10.2018 17:00:00 3,6 2,0 5 3 10 5 S 1016,9 50 0,0
20.10.2018 16:00:00 4,4 1,8 5 3 16 9 SE 1016,8 50 0,0
20.10.2018 15:00:00 5,9 2,5 9 5 14 8 WSW 1017,0 50 0,0
20.10.2018 14:00:00 4,9 2,9 6 3 12 6 SSW 1016,9 50 0,0
20.10.2018 13:00:00 4,1 2,9 6 4 13 7 SSW 1016,9 50 0,0
20.10.2018 12:00:00 3,7 2,7 9 5 13 7 S 1017,0 45 0,0
20.10.2018 11:00:00 3,1 2,5 8 4 15 8 S 1017,2 45 0,0
20.10.2018 10:00:00 2,6 2,0 4 2 14 8 SSE 1016,8 50 0,0
20.10.2018 09:00:00 2,3 2,2 8 4 11 6 S 1016,6 50 0,0
20.10.2018 08:00:00 0,8 0,7 0 0 6 3 N 1016,7 11 0,0
20.10.2018 07:00:00 1,6 1,0 4 2 9 5 SSE 1016,6 38 0,0
20.10.2018 06:00:00 2,2 1,9 4 2 9 5 S 1016,6 47 0,0
20.10.2018 05:00:00 2,2 1,9 0 0 6 4 N 1016,7 28 0,1
20.10.2018 04:00:00 2,1 2,0 3 2 6 4 SSE 1016,9 12 0,1
20.10.2018 03:00:00 1,4 1,3 2 1 5 3 SE 1016,8 27 0,0
20.10.2018 02:00:00 1,3 1,0 0 0 1 1 N 1017,0 49 0,0
20.10.2018 01:00:00 1,6 1,2 0 0 6 3 N 1017,1 35 0,1
20.10.2018 00:00:00 2,4 2,1 2 1 5 3 SSW 1017,2 16 0,2
19.10.2018 23:00:00 2,8 1,9 3 1 6 4 WSW 1017,2 25 0,0
19.10.2018 22:00:00 2,8 1,8 4 2 8 4 WSW 1017,4 34 0,2
19.10.2018 21:00:00 1,8 0,0 0 0 4 2 N 1017,4 50 0,0
19.10.2018 20:00:00 2,8 0,3 6 3 9 5 SW 1017,0 50 0,0
19.10.2018 19:00:00 3,2 -0,1 5 3 15 8 W 1016,9 50 0,0
19.10.2018 18:00:00 3,7 -0,7 5 3 18 10 W 1016,6 50 0,0
19.10.2018 17:00:00 4,4 -0,8 10 5 18 10 W 1016,2 50 0,0
19.10.2018 16:00:00 6,4 -0,6 9 5 19 11 W 1015,6 50 0,0
19.10.2018 15:00:00 6,9 -0,3 9 5 24 13 WNW 1015,5 49 0,0
19.10.2018 14:00:00 7,9 0,1 11 6 26 14 W 1015,4 49 0,0
19.10.2018 13:00:00 7,7 0,7 12 6 23 13 W 1015,1 47 0,0
19.10.2018 12:00:00 7,4 1,0 9 5 23 12 W 1014,9 42 0,0
19.10.2018 11:00:00 7,0 1,1 6 3 19 10 W 1014,3 50 0,0
19.10.2018 10:00:00 5,0 0,9 3 2 24 13 W 1013,9 50 0,0
19.10.2018 09:00:00 4,3 1,0 11 6 24 13 W 1013,1 50 0,0
19.10.2018 08:00:00 3,2 0,8 9 5 16 9 W 1012,6 50 0,0
19.10.2018 07:00:00 2,6 0,0 3 1 36 20 SSW 1012,3 50 0,0
19.10.2018 06:00:00 4,8 0,6 15 8 32 17 WNW 1010,5 50 0,0
19.10.2018 05:00:00 4,9 0,7 11 6 34 18 NW 1009,9 50 0,0
19.10.2018 04:00:00 4,3 0,6 10 6 33 18 WNW 1009,4 50 0,0
19.10.2018 03:00:00 5,1 0,8 17 9 46 25 W 1008,6 50 0,0
19.10.2018 02:00:00 4,5 0,5 10 5 26 14 W 1008,4 50 0,0
19.10.2018 01:00:00 5,1 0,5 13 7 28 15 W 1008,0 50 0,0
19.10.2018 00:00:00 5,2 0,2 14 7 45 25 W 1007,6 50 0,0
18.10.2018 23:00:00 5,4 0,0 20 11 49 26 W 1006,8 50 0,0
18.10.2018 22:00:00 5,0 0,2 10 5 31 17 SW 1006,9 50 0,0
18.10.2018 21:00:00 4,8 0,4 12 7 24 13 WSW 1006,5 50 0,0
18.10.2018 20:00:00 4,3 0,8 11 6 24 13 WSW 1006,4 50 0,0
18.10.2018 19:00:00 4,4 0,9 12 6 29 16 SW 1006,4 50 0,0
18.10.2018 18:00:00 4,8 0,9 15 8 26 14 WSW 1006,3 50 0,0
18.10.2018 17:00:00 5,2 0,8 11 6 29 15 SW 1005,9 50 0,0
18.10.2018 16:00:00 5,3 0,3 13 7 32 17 SW 1005,9 50 0,0
18.10.2018 15:00:00 5,8 -0,3 15 8 29 16 SW 1005,9 50 0,0
18.10.2018 14:00:00 6,6 -0,6 16 9 33 18 SW 1005,8 42 0,0
18.10.2018 13:00:00 6,1 -0,6 14 7 27 15 SW 1006,5 43 0,0
18.10.2018 12:00:00 5,4 0,4 13 7 24 13 SSW 1006,7 43 0,0
18.10.2018 11:00:00 5,2 0,4 14 7 26 14 SW 1007,1 43 0,0
18.10.2018 10:00:00 4,5 0,5 10 5 21 11 SW 1007,7 50 0,0
18.10.2018 09:00:00 3,0 0,2 9 5 19 10 S 1007,9 49 0,0
18.10.2018 08:00:00 2,5 0,1 8 4 17 9 S 1007,8 50 0,0
18.10.2018 07:00:00 3,4 -0,2 7 4 24 13 SW 1007,5 44 0,0

tt = Température de l'air
td = dewpoint
ff = Vitesse du vent
fx = gusts
dd = Direction du vent
ppp = reduced air pressure
vv = visibility
rr = Quantités de précipitations

stations d'obs. à proximité